Date String (YYYY-MM-DD hh:mm:ss) UTC,Instrument flags,Ambient pressure (hPa),Sample flow (lpm),Bypass flow (lpm),Sample temperature (°C),Ambient temperature (°C),ASC tube jacket temperature (°C),LED temperature (°C),Box temperature (°C),Sample RH (%),Span deviation,Mass concentration (μg/m³),Mass concentration (μg/m³),Mass concentration (μg/m³)
DateTimeUTC,F1_M11,P_M11,Q1_M11,Q2_M11,T1_M11,T2_M11,T3_M11,T4_M11,T5_M11,U1_M11,ZSPAN_M11,X0_M11,X2_M11,X1_M11
2023-01-28 04:00:00,,0814.9,5.02,0.00,22.1,20.4,00.0,31.1,23.6,10.6,0000.0,0000.79,0000.44,0000.33
2023-01-28 04:01:00,,0814.9,5.00,0.00,22.0,20.4,00.0,31.0,23.6,10.6,0000.0,0000.80,0000.45,0000.33
2023-01-28 04:02:00,,0814.9,5.01,0.00,22.0,20.3,00.0,31.0,23.5,10.4,0000.0,0000.74,0000.43,0000.33
2023-01-28 04:03:00,,0814.9,5.02,0.00,22.0,20.3,00.0,31.0,23.5,10.4,0000.0,0000.68,0000.43,0000.33
2023-01-28 04:04:00,,0815.0,5.00,0.00,22.0,21.1,00.0,30.9,23.8,10.5,0000.0,0000.75,0000.46,0000.33
2023-01-28 04:05:00,,0815.0,5.01,0.00,22.1,22.1,00.0,30.9,24.0,10.6,0000.0,0000.81,0000.47,0000.34
2023-01-28 04:06:00,,0815.1,5.00,0.00,22.2,22.8,00.0,31.0,24.3,10.4,0000.0,0000.86,0000.46,0000.33
2023-01-28 04:07:00,,0815.2,4.98,0.00,22.3,22.4,00.0,31.0,24.3,10.6,0000.0,0001.03,0000.45,0000.32
2023-01-28 04:08:00,,0815.2,5.02,0.00,22.3,22.0,00.0,31.1,24.2,10.5,0000.0,0001.25,0000.45,0000.32
2023-01-28 04:09:00,,0815.5,4.99,0.00,22.3,21.6,00.0,31.1,24.1,10.5,0000.0,0001.23,0000.45,0000.31
2023-01-28 04:10:00,,0815.2,4.99,0.00,22.3,21.3,00.0,31.1,24.1,10.6,0000.0,0001.23,0000.45,0000.31
2023-01-28 04:11:00,,0815.3,5.00,0.00,22.3,21.1,00.0,31.1,24.1,10.7,0000.0,0001.25,0000.46,0000.31
2023-01-28 04:12:00,,0815.3,5.00,0.00,22.3,21.0,00.0,31.1,24.0,10.8,0000.0,0001.31,0000.48,0000.32
2023-01-28 04:13:00,,0815.4,5.00,0.00,22.3,20.9,00.0,31.1,24.0,10.9,0000.0,0001.41,0000.52,0000.33
2023-01-28 04:14:00,,0815.4,5.04,0.00,22.3,20.8,00.0,31.1,24.0,10.9,0000.0,0001.46,0000.53,0000.34
2023-01-28 04:15:00,,0815.3,5.00,0.00,22.2,20.8,00.0,31.1,24.0,11.0,0000.0,0001.48,0000.52,0000.34
2023-01-28 04:16:00,,0815.4,5.01,0.00,22.2,20.8,00.0,31.1,24.0,11.0,0000.0,0001.48,0000.53,0000.35
2023-01-28 04:17:00,,0815.4,4.99,0.00,22.2,20.7,00.0,31.1,24.0,11.0,0000.0,0001.52,0000.57,0000.37
2023-01-28 04:18:00,,0815.4,5.00,0.00,22.2,20.7,00.0,31.1,24.0,11.0,0000.0,0001.46,0000.63,0000.39
2023-01-28 04:19:00,,0815.3,5.00,0.00,22.2,20.7,00.0,31.1,24.0,11.0,0000.0,0001.31,0000.66,0000.41
2023-01-28 04:20:00,,0815.3,4.99,0.00,22.2,20.6,00.0,31.1,24.0,10.9,0000.0,0001.28,0000.66,0000.42
2023-01-28 04:21:00,,0815.4,5.00,0.00,22.2,20.6,00.0,31.1,24.0,10.8,0000.0,0001.27,0000.65,0000.43
2023-01-28 04:22:00,,0815.3,4.98,0.00,22.2,20.5,00.0,31.1,23.9,10.8,0000.0,0001.24,0000.65,0000.43
2023-01-28 04:23:00,,0815.3,5.00,0.00,22.2,20.4,00.0,31.1,23.8,10.9,0000.0,0001.18,0000.62,0000.44
2023-01-28 04:24:00,,0815.4,5.02,0.00,22.1,20.3,00.0,31.1,23.8,10.9,0000.0,0001.15,0000.61,0000.43
2023-01-28 04:25:00,,0815.4,5.01,0.00,22.1,20.3,00.0,31.0,23.8,11.0,0000.0,0001.08,0000.60,0000.44
2023-01-28 04:26:00,,0815.4,4.99,0.00,22.0,20.3,00.0,31.0,23.7,11.0,0000.0,0001.08,0000.61,0000.44
2023-01-28 04:27:00,,0815.4,5.00,0.00,22.1,21.0,00.0,31.0,23.9,11.0,0000.0,0001.07,0000.62,0000.44
2023-01-28 04:28:00,,0815.4,5.01,0.00,22.2,22.1,00.0,31.0,24.1,11.0,0000.0,0000.99,0000.59,0000.43
2023-01-28 04:29:00,,0815.5,4.99,0.00,22.3,22.7,00.0,31.0,24.3,11.0,0000.0,0000.91,0000.56,0000.43
2023-01-28 04:30:00,,0815.5,4.99,0.00,22.3,22.3,00.0,31.0,24.3,11.0,0000.0,0000.96,0000.53,0000.42
2023-01-28 04:31:00,,0815.4,5.00,0.00,22.3,21.9,00.0,31.1,24.2,11.1,0000.0,0001.02,0000.55,0000.43
2023-01-28 04:32:00,,0815.4,5.00,0.00,22.3,21.5,00.0,31.1,24.1,11.1,0000.0,0001.18,0000.57,0000.43
2023-01-28 04:33:00,,0815.5,5.01,0.00,22.3,21.0,00.0,31.1,24.0,11.2,0000.0,0001.34,0000.59,0000.44
2023-01-28 04:34:00,,0815.4,5.00,0.00,22.2,20.6,00.0,31.1,23.9,11.2,0000.0,0001.36,0000.60,0000.45
2023-01-28 04:35:00,,0815.4,5.00,0.00,22.1,20.3,00.0,31.1,23.7,11.2,0000.0,0001.36,0000.61,0000.45
2023-01-28 04:36:00,,0815.3,5.00,0.00,22.1,20.0,00.0,31.1,23.6,11.3,0000.0,0001.38,0000.63,0000.46
2023-01-28 04:37:00,,0815.2,5.05,0.00,22.0,19.9,00.0,31.1,23.5,11.6,0000.0,0001.44,0000.66,0000.47
2023-01-28 04:38:00,,0815.3,4.99,0.00,22.0,19.8,00.0,31.0,23.5,11.7,0000.0,0001.40,0000.65,0000.48
2023-01-28 04:39:00,,0815.4,5.04,0.00,21.9,19.7,00.0,31.0,23.3,11.6,0000.0,0001.39,0000.65,0000.48
2023-01-28 04:40:00,,0815.2,5.01,0.00,21.8,19.6,00.0,31.0,23.3,11.4,0000.0,0001.39,0000.66,0000.48
2023-01-28 04:41:00,,0815.2,4.99,0.00,21.8,19.6,00.0,30.9,23.3,11.2,0000.0,0001.33,0000.67,0000.47
2023-01-28 04:42:00,,0815.3,5.04,0.00,21.8,20.7,00.0,30.9,23.6,11.1,0000.0,0001.28,0000.67,0000.46
2023-01-28 04:43:00,,0815.2,5.02,0.00,22.0,22.1,00.0,30.8,23.9,10.7,0000.0,0001.13,0000.65,0000.46
2023-01-28 04:44:00,,0815.2,4.99,0.00,22.1,22.7,00.0,30.9,24.1,10.7,0000.0,0000.98,0000.63,0000.45
2023-01-28 04:45:00,,0815.3,5.02,0.00,22.1,22.3,00.0,30.9,24.1,10.9,0000.0,0001.01,0000.64,0000.45
2023-01-28 04:46:00,,0815.3,5.01,0.00,22.1,21.7,00.0,30.9,23.9,10.8,0000.0,0001.00,0000.64,0000.44
2023-01-28 04:47:00,,0815.3,5.01,0.00,22.1,21.2,00.0,31.0,23.8,10.9,0000.0,0000.95,0000.61,0000.44
2023-01-28 04:48:00,,0815.3,5.00,0.00,22.0,20.8,00.0,31.0,23.7,11.2,0000.0,0000.90,0000.59,0000.44
2023-01-28 04:49:00,,0815.2,4.99,0.00,22.0,20.5,00.0,31.0,23.6,11.7,0000.0,0001.39,0000.59,0000.43
2023-01-28 04:50:00,,0815.2,5.00,0.00,22.0,20.3,00.0,30.9,23.5,12.1,0000.0,0002.08,0000.60,0000.44
2023-01-28 04:51:00,,0815.3,5.02,0.00,21.9,20.1,00.0,30.9,23.5,12.3,0000.0,0002.11,0000.63,0000.47
2023-01-28 04:52:00,,0815.4,4.97,0.00,21.9,19.9,00.0,30.9,23.4,12.4,0000.0,0002.08,0000.64,0000.50
2023-01-28 04:53:00,,0815.3,5.06,0.00,21.8,19.8,00.0,30.9,23.4,12.4,0000.0,0002.17,0000.69,0000.53
2023-01-28 04:54:00,,0815.3,4.96,0.00,21.8,19.8,00.0,30.9,23.4,12.4,0000.0,0002.33,0000.75,0000.57
2023-01-28 04:55:00,,0815.3,5.00,0.00,21.8,19.9,00.0,30.8,23.4,12.3,0000.0,0002.52,0000.80,0000.59
2023-01-28 04:56:00,,0815.2,5.01,0.00,21.8,19.9,00.0,30.8,23.4,12.2,0000.0,0002.54,0000.82,0000.61
2023-01-28 04:57:00,,0815.3,4.99,0.00,21.7,19.9,00.0,30.8,23.4,12.2,0000.0,0002.69,0000.85,0000.64
2023-01-28 04:58:00,,0815.3,5.00,0.00,21.7,19.8,00.0,30.8,23.3,12.2,0000.0,0002.83,0000.89,0000.66
2023-01-28 04:59:00,,0815.4,4.96,0.00,21.7,19.7,00.0,30.8,23.2,12.1,0000.0,0002.91,0000.91,0000.67
